[Date Prev][Date Next][Thread Prev][Thread Next] - [Date Index][Thread Index][Author Index]
2 Line ISS Keps 11-8
- Subject: [sarex] 2 Line ISS Keps 11-8
- From: "Dave Larsen Ph.D." <doc@xxxxxxxxxxx>
- Date: Fri, 8 Nov 2002 01:25:24 -0800
ISS
1 25544U 98067A 02312.13023200 .00051506 00000-0 66459-3 0 3487
2 25544 51.6399 50.2444 0014229 114.3828 315.2154 15.58351943226420
----
Via the sarex mailing list at AMSAT.ORG courtesy of AMSAT-NA.
To unsubscribe, send "unsubscribe sarex" to Majordomo@amsat.org
AMSAT Home